Theta_e
290 289 288 288 288 287 287 287 288 288 291 295 298 300 297 296 295 295 294 294 295 296 296 298 299 301 303 304 306 309 313 317 324 320 320 321 323 323 323 324 324 325 326
288 289 287 286 286 285 285 286 286 287 288 292 295 298 297 297 295 294 293 292 293 294 294 295 296 297 299 299 301 301 305 311 318 317 317 313 317 321 322 323 323 323 324
288 288 286 284 284 283 283 284 285 285 286 287 291 293 295 293 291 290 290 290 291 292 293 293 294 295 296 296 298 297 300 301 308 308 312 310 309 314 319 321 321 321 321
288 287 286 284 283 283 283 283 284 284 285 285 286 286 286 285 287 289 289 289 289 289 290 291 292 293 294 294 295 296 296 299 298 302 305 308 313 310 308 317 319 321 320
287 286 286 285 284 284 282 282 283 282 283 283 283 282 282 284 285 287 287 287 287 288 289 290 290 290 291 293 293 294 294 295 295 296 296 300 303 310 307 306 310 317 319
286 286 286 285 284 283 282 282 282 281 282 281 281 280 279 280 279 280 280 282 283 285 286 288 288 289 289 290 291 293 292 293 293 294 293 293 293 294 294 301 306 308 313
286 285 283 284 283 282 281 281 281 280 281 280 279 278 279 278 278 276 278 279 280 280 281 283 285 285 287 289 289 289 290 291 291 291 292 293 292 293 293 294 294 302 306
285 284 283 283 283 282 281 281 280 279 279 279 279 279 279 279 279 279 278 278 279 279 281 282 283 284 285 286 287 286 288 289 289 289 290 290 291 292 292 291 290 292 302
284 283 283 284 282 281 281 280 280 280 279 278 278 278 278 279 278 279 279 279 280 282 282 282 282 283 284 284 285 284 284 285 287 287 288 288 289 290 290 290 291 289 289
285 284 283 283 282 281 280 280 280 279 279 279 278 279 278 279 280 280 279 280 280 281 282 282 282 282 283 284 284 284 284 284 284 285 285 286 286 287 288 288 289 289 288
286 285 283 282 281 280 278 278 278 278 278 278 278 278 279 281 282 281 281 281 280 281 281 281 282 281 282 283 283 283 283 282 282 283 283 283 284 284 285 287 287 287 287
286 285 283 280 278 278 277 277 277 277 277 278 278 278 280 282 280 280 280 281 280 280 280 281 281 281 281 282 282 282 282 281 281 281 281 282 283 283 284 285 285 284 285
284 283 280 278 277 276 277 276 276 276 278 280 279 279 280 279 279 280 280 280 280 280 280 280 280 280 281 281 282 282 281 280 280 281 281 281 281 281 281 283 283 284 284
282 281 280 277 277 276 276 276 277 279 281 280 279 278 279 281 280 280 279 280 280 279 279 279 280 280 280 280 282 282 281 279 279 280 281 281 281 281 281 281 281 282 282
281 280 280 277 275 275 275 278 280 280 278 278 278 279 280 280 280 279 279 279 279 279 279 278 278 278 279 280 282 282 279 278 278 279 279 280 283 284 284 282 280 280 280
279 278 278 276 275 273 276 279 280 278 279 279 279 280 279 279 279 279 278 278 277 277 277 277 277 276 277 282 284 283 278 278 278 277 277 278 281 282 284 285 285 284 280
278 277 276 275 274 276 279 278 278 279 279 279 279 279 278 278 278 277 277 276 275 276 274 275 275 275 276 281 283 283 279 278 277 277 277 277 279 280 279 282 284 284 285
277 277 277 276 276 277 278 278 277 278 279 278 278 278 277 277 277 276 275 275 275 274 274 274 274 274 276 280 282 283 278 277 277 277 277 276 277 278 280 280 280 280 281
276 277 276 276 276 276 276 277 278 278 278 277 277 277 276 275 275 275 274 274 274 274 273 274 273 272 273 278 280 280 277 277 276 277 277 277 278 281 284 280 279 279 279
277 277 277 276 275 275 276 276 276 276 275 275 276 276 275 275 274 273 273 274 273 274 274 273 273 274 272 277 279 279 277 274 276 277 278 280 279 282 282 279 278 278 279
275 275 273 271 272 273 274 274 275 274 275 275 275 274 274 273 273 273 273 272 272 272 270 271 271 272 273 273 279 280 277 276 276 276 276 277 281 282 283 283 280 278 281
274 273 270 270 272 272 273 273 273 274 274 273 273 272 272 273 274 273 273 273 270 270 269 269 270 272 272 276 278 280 280 279 277 276 276 276 281 282 282 281 282 282 279
273 274 271 271 272 273 273 271 271 272 271 271 270 271 271 272 272 272 272 271 269 267 267 269 268 270 274 273 278 279 280 281 278 278 279 281 281 281 280 280 280 279 275
271 271 270 269 271 271 272 270 270 270 269 268 268 269 269 270 270 271 271 270 266 266 268 269 270 270 271 272 274 275 275 278 279 279 278 280 279 278 277 275 275 275 274
272 272 271 270 269 268 268 268 270 268 268 268 269 268 269 268 268 269 267 268 268 269 269 270 272 271 269 274 278 279 278 277 279 279 274 273 273 272 272 272 273 273 274
271 270 269 269 268 267 267 268 268 268 266 266 268 265 266 264 266 264 264 272 275 276 277 277 276 276 278 279 279 280 280 280 280 273 268 268 270 270 270 270 270 271 272
Wind_Speed
5 5 2 2 5 5 7 8 10 11 8 5 5 3 5 7 7 8 11 11 10 11 11 6 7 8 7 7 8 6 6 5 5 7 8 8 8 10 10 8 8 10 10
6 6 3 1 3 5 6 7 8 9 7 6 4 3 3 3 5 7 9 12 13 12 9 8 7 8 6 9 8 7 4 3 5 4 3 4 6 9 10 8 11 12 10
9 6 4 2 2 3 5 5 6 7 7 8 4 4 3 3 5 7 8 10 12 13 12 11 9 8 6 6 7 8 7 3 4 8 5 3 4 1 5 13 10 11 9
4 4 5 3 2 2 2 5 5 6 6 7 5 7 4 3 3 4 5 7 12 12 12 12 12 10 6 7 6 7 6 5 4 5 6 5 3 2 3 3 6 9 11
7 6 6 5 2 3 3 3 5 6 6 6 5 4 5 3 3 4 7 8 9 11 11 11 11 10 7 8 8 8 8 6 5 4 4 5 6 2 3 5 1 4 6
7 6 6 5 4 3 3 3 5 5 6 6 6 6 7 5 5 5 5 5 4 6 10 10 8 8 8 9 8 8 9 7 6 5 7 6 4 4 4 4 3 5 3
7 7 8 7 6 6 5 4 4 4 5 6 6 5 6 6 6 3 3 5 5 4 7 8 8 7 8 9 8 8 8 8 6 7 5 5 6 5 4 3 4 3 3
7 8 9 8 7 6 4 3 3 4 4 5 5 5 5 4 4 4 3 3 3 3 5 6 6 8 8 7 7 6 6 7 7 9 7 5 5 5 6 5 4 4 1
7 8 7 7 7 6 6 6 4 4 4 4 4 5 5 6 5 5 4 3 4 5 6 6 7 7 8 8 6 6 7 6 6 7 7 6 5 5 5 5 5 4 4
6 6 7 7 6 6 6 7 7 6 4 4 3 4 4 4 5 4 6 6 5 6 6 7 6 7 7 8 7 5 6 6 6 5 7 6 5 6 4 4 5 4 3
6 6 7 7 8 6 6 6 6 6 6 5 5 5 4 5 5 6 6 6 5 6 6 6 6 7 7 7 7 7 7 7 6 5 5 6 6 5 5 5 5 5 4
7 7 5 4 6 7 6 5 4 5 5 6 6 5 4 3 4 6 5 5 5 5 6 6 6 6 6 5 6 7 7 7 7 7 6 5 6 6 5 4 5 5 4
9 9 6 3 6 6 6 6 6 6 6 6 5 5 3 4 4 2 4 5 7 6 6 6 6 7 6 6 3 3 5 6 7 7 7 6 6 5 4 4 4 3 4
7 7 5 3 5 6 6 5 5 5 5 4 5 5 4 3 4 5 5 6 6 5 5 5 5 6 5 6 5 2 3 4 5 6 6 6 7 5 5 4 4 4 4
6 7 8 3 5 6 6 5 4 3 4 4 5 4 2 2 3 4 6 5 3 4 4 5 5 5 5 6 6 2 3 4 4 4 5 6 8 9 9 4 4 4 2
7 8 8 1 5 6 6 6 5 4 4 2 2 2 2 1 3 3 3 4 4 4 3 4 4 6 5 11 11 6 3 4 5 5 5 6 7 8 11 11 11 9 4
5 6 6 4 4 5 5 5 4 3 3 2 3 2 2 2 3 3 3 4 3 4 4 4 3 5 5 11 11 11 1 2 4 4 4 5 6 8 6 9 9 9 11
3 3 3 4 5 4 6 4 3 2 2 2 2 2 2 3 3 4 3 2 2 3 3 3 4 4 5 11 11 10 3 3 4 4 5 4 5 6 7 4 3 3 3
2 2 3 3 4 4 3 3 3 2 2 3 2 2 2 3 4 5 2 2 3 3 3 3 3 4 4 10 10 6 3 3 5 5 4 5 5 11 14 5 5 6 6
2 2 3 2 4 3 2 3 3 3 3 2 2 3 4 5 4 1 2 2 1 3 3 5 3 7 4 9 10 7 2 3 4 2 3 8 9 14 15 6 2 5 5
1 2 4 3 2 2 2 3 3 3 2 2 3 4 2 4 4 2 1 2 2 2 3 4 4 5 5 6 10 10 2 3 4 3 3 3 13 15 15 15 3 5 7
1 3 3 2 1 2 3 2 0 1 3 2 3 3 3 4 3 2 2 2 2 3 4 4 4 4 5 9 10 12 10 9 3 4 4 6 15 16 14 9 15 16 7
2 1 2 1 1 0 1 2 1 0 2 3 3 3 4 4 3 3 2 2 2 2 4 3 4 4 5 5 14 13 12 13 8 5 10 18 16 13 9 11 13 12 5
2 1 1 1 3 2 3 2 3 1 3 3 3 4 3 3 3 2 2 2 2 3 3 4 4 4 5 5 6 7 7 12 9 12 9 9 6 7 8 8 7 5 5
0 1 2 4 3 2 4 4 3 2 3 4 4 2 3 3 3 3 2 3 4 5 5 5 4 4 4 6 12 10 6 5 8 6 3 1 3 3 4 4 5 5 5
2 3 3 4 5 5 5 4 3 3 3 4 3 3 2 2 2 2 4 8 9 11 12 13 10 6 13 15 15 16 16 16 12 3 0 1 2 4 5 5 5 5 7
Wind_Direction
212 204 217 352 358 359 2 3 1 359 6 351 355 7 32 23 27 28 21 13 13 21 31 18 19 10 22 11 356 336 335 317 267 263 246 237 228 232 235 235 234 230 226
217 222 200 61 26 1 356 5 7 3 6 3 344 7 4 26 35 22 24 16 15 21 24 20 32 25 18 11 7 8 339 308 343 303 256 267 226 229 226 221 228 219 224
218 215 204 185 90 35 14 20 6 5 13 360 6 12 12 19 11 18 16 14 17 14 15 17 21 24 25 18 5 9 16 328 310 349 310 265 235 270 210 229 222 213 211
226 199 192 198 144 131 60 43 27 18 24 10 32 51 56 37 1 3 7 16 18 19 13 14 17 11 5 21 12 20 16 349 11 317 352 317 309 301 272 214 216 232 226
213 213 206 199 157 146 106 71 59 40 25 33 45 61 63 32 9 16 28 20 20 18 17 18 11 6 359 8 11 22 24 27 23 18 339 343 321 327 289 291 276 208 224
212 210 202 181 184 172 132 107 77 56 39 37 40 60 67 58 46 22 24 18 10 17 15 17 18 9 5 9 1 10 24 26 32 30 35 32 10 356 341 324 336 276 252
198 202 198 200 199 195 175 147 119 85 65 57 44 42 62 59 59 28 18 15 8 12 6 5 10 13 6 3 8 15 19 17 27 27 37 39 34 5 333 329 313 317 355
202 207 205 202 200 188 171 138 120 99 75 69 59 49 46 52 50 41 35 27 15 356 356 1 5 8 7 8 6 8 17 16 23 24 20 36 30 15 19 14 329 330 300
227 225 211 203 191 179 176 162 138 117 107 92 82 63 50 44 40 33 40 33 12 22 15 7 1 6 9 8 7 13 10 9 13 18 21 18 23 14 19 14 22 360 340
266 238 221 201 181 168 167 165 162 158 141 124 103 85 76 49 31 16 30 23 17 10 11 11 8 5 14 13 12 9 6 17 8 21 18 17 11 15 15 21 20 34 352
325 278 234 193 173 164 169 170 152 142 134 126 121 106 70 50 40 35 24 15 9 9 16 13 10 8 7 11 19 17 17 12 3 5 17 16 16 6 1 12 29 23 8
338 335 315 179 154 167 157 141 139 143 139 115 90 65 67 95 72 32 1 353 4 10 3 10 13 7 354 355 12 20 13 10 9 1 3 12 13 2 3 5 16 23 16
352 344 359 200 171 151 152 162 159 147 127 115 104 76 45 29 57 50 304 15 11 2 356 8 12 1 348 341 342 23 23 8 1 354 353 352 352 352 3 5 356 355 8
349 332 333 199 160 150 155 153 149 141 143 134 123 110 74 32 321 3 37 36 345 355 359 3 5 359 335 331 340 26 28 13 6 353 350 353 340 346 1 12 353 7 357
6 338 321 198 158 148 139 139 133 112 109 98 91 96 78 71 34 11 1 360 336 349 356 3 2 359 342 336 343 43 40 7 358 349 351 347 338 353 354 358 335 344 347
0 352 347 43 170 146 140 123 99 90 86 112 128 116 106 64 50 17 348 340 322 333 344 355 359 356 347 329 341 5 33 360 351 342 339 333 356 354 350 350 348 345 340
358 4 11 27 93 105 105 105 122 133 155 164 132 116 83 48 15 352 336 332 323 325 333 337 348 341 332 335 333 332 64 333 323 324 331 335 342 342 317 327 355 5 350
17 20 47 61 63 78 96 116 136 164 135 117 113 81 45 12 334 316 314 313 317 316 321 322 344 331 324 332 330 329 347 316 297 304 309 316 310 312 319 298 315 316 301
77 69 72 73 84 91 117 139 145 126 145 98 87 52 0 327 305 301 310 317 324 308 315 338 345 327 314 326 324 348 350 315 298 296 315 293 309 315 323 346 329 323 313
121 128 104 92 77 30 37 103 110 99 83 55 16 328 312 303 289 294 312 306 309 327 335 328 342 309 322 321 326 337 304 304 305 313 304 321 325 319 316 321 359 329 316
152 88 83 94 76 33 60 91 96 91 51 339 293 291 291 304 270 301 290 318 334 340 326 314 303 297 302 309 330 328 317 296 300 321 292 278 307 307 313 328 12 287 319
117 112 121 134 98 62 74 66 59 194 262 286 303 316 314 303 321 317 315 328 0 327 317 311 310 308 303 321 324 326 325 316 324 303 283 274 294 302 322 342 323 326 17
123 106 169 194 171 84 247 271 294 263 302 313 316 311 307 310 329 309 316 310 338 319 302 303 306 303 315 306 314 316 311 311 306 284 279 297 314 328 341 323 337 334 327
145 117 80 351 292 270 329 314 304 358 309 304 299 294 304 276 318 327 312 296 276 286 286 291 284 279 285 287 291 291 292 293 293 284 284 302 348 1 339 327 314 306 298
78 210 269 279 283 312 305 302 314 312 299 296 284 265 299 296 289 302 249 254 260 232 246 243 247 267 260 271 285 304 294 275 277 326 66 23 329 310 305 298 296 299 288
281 289 300 309 298 299 293 287 278 296 291 282 266 267 251 265 284 284 296 305 295 299 304 302 298 288 296 303 305 311 314 315 340 65 52 263 275 289 293 294 299 297 298